Timeline UpdatesTrip UpdatesNews PostsPvt PostsTravel TipsAdmin PostsConv PostsFollowed PostsChat RequestsBlog PostsPNR Posts

Disclaimer
Search
 
 
Wed Jul 23, 2014 23:37:24 ISTHomeTrainsΣChainsAtlasPNRForumGalleryNewsFAQTripsMembersLoginFeedback
No Recent News for this Train
Other Trains in the News **new
Latest...
.
Tue Jan 22, 2013 (09:18AM)
⇐ Return Journey: Train# 51421

51422/Nizamabad Pune Passenger (UnReserved)

Jan 16 2014 (7:31PM)
Change Departure Station:
Change Arrival Station:
Post a Train Travel TipPost a Train Travel Tip **new
Post a Comment/Question/Picture/VideoPost a Comment/Question/Picture/Video
Pantry/Catering
✕ NO Pantry Car
✓ Catering Avbl
Loco/Rake Reversals
DD/Daund Junction (7);
RSA - Rake Sharing
51433-34 and 51451-52
Rake/Coach Composition
SLR, UR, UR, UR, UR, UR, UR, UR, SLR,
Loco
PUNE WDM/G-3A / WDM-3D
News    PNR    Forum    Time-Table    Availability    Fare Chart    Map    Arr/Dep History    Trips    Gallery    ΣChains    X/O    Timeline    
Travel Time: 7h 25m    27 halts    Distance: 238 km    Avg Speed: 32 km/hr
Type: Passenger
Zone: CR/Central
Departs @ 13:30
Platform# 1
SMTWTFS
Chitali/CIT 
Arrives @ 20:55
Platform# 6
SMTWTFS
Pune Junction/PUNE 

27 halts. 33 intermediate Stations between Chitali and Pune Junction

Show ALL intermediate Stations  Show Old Time-Table

#CodeStation NameX/OArrivesAvgDepartsAvgHaltPFDay#KmSpeedElevZoneAddress
1NZBNizamabad (3)  -23:40---1-535.547384mSCRNizamabad, Telangana
2JKMJankampet Junction (1)  23:48-23:49-1m11-529.256391mSCRJankampet Junction nizamabad dist., Telangana
3NVTNavipet (2)  23:59-00:01-2m--1-519.953374mSCRNizamabad Dist., Telangana
4FKBFakrabad (1)  00:09-00:10-1m12-512.867348mSCRNizamabad Dist., Telangana
5BSXBasar (2)  00:16-00:18-2m12-506.159358mSCRDist Adilabad, Telangana
6DABDharmabad (2)  00:28-00:29-1m--2-496.368354mSCRDegaon, Maharashtra
7KEKKarkheliX  00:41-00:42-1m--2-482.756358mSCRBiloli, Maharashtra
8BLSABolsaXO  00:50-00:51-1m--2-475.222361mSCRDharmabad, Maharashtra
9UMRIUmri (1)XO  01:14-01:15-1m12-466.852381mSCRHuzur Sahib Nanded, Maharashtra
10SLGHShelgaon Halt  01:24-01:25-1m--2-459.067378mSCRMudkhed, Maharashtra
11SVNSivungaonX  01:29-01:30-1m--2-454.515395mSCRHuzur Sahib Nanded, Maharashtra
12MUEMudkhed Junction (4)  01:58-02:00-2m--2-447.361378mSCRMudkhed, Maharashtra
13MGCMugat  02:09-02:10-1m--2-438.250360mSCRHuzur Sahib Nanded, Maharashtra
14PARDPathrad  02:14-02:15-1m--2-434.948363mSCRHuzur Sahib Nanded, Maharashtra
15MTDIMaltekdi  02:24-02:25-1m--2-427.811362mSCRNanded, Maharashtra
16NEDHazur Sahib Nanded (4)  02:40-02:45-5m22-425.077366mSCRNanded, Maharashtra
17WNGWanegaonX  02:50-02:51-1m--2-418.640371mSCRChudawa, Maharashtra
18LBGLimbgaon (2)X  02:58-02:59-1m--2-413.972390mSCRHuzur Sahib Nanded, Maharashtra
19CRUChudawa (1)X  03:07-03:08-1m12-404.335392mSCRHingoli, Maharashtra
20PAUPurna Junction (4)X  03:25-03:30-5m--2-394.452384mSCRPurna, Maharashtra
21MQLMirkhal  03:44-03:45-1m--2-382.354405mSCRPurna, Maharashtra
22PIZPingli (1)X  03:51-03:52-1m12-376.960399mSCRParbhani, Maharashtra
23PBNParbhani Junction (3)X  04:03-04:05-2m12-365.966414mSCRParbhani 431401, Maharashtra
24PGPergaon  04:16-04:17-1m--2-353.873441mSCRParbhani, Maharashtra
25DAVDevalgaon Avchar  04:22-04:23-1m--2-347.892425mSCRParbhani, Maharashtra
26MVOManwath Road (2)  04:29-04:30-1m--2-338.582421mSCRParbhani, Maharashtra
27DGPPDhengli Pimpalgaon  04:34-04:35-1m--2-333.196407mSCRSatuna, Maharashtra
28SELUSelu (2)  04:41-04:42-1m--2-323.587436mSCRParbhani, Maharashtra
29SCOSatuna  04:49-04:50-1m--2-313.353440mSCRSatona, Maharashtra
30UPRUsmanpur  04:59-05:00-1m--2-305.420444mSCRUsmanpur, Maharashtra
31PTUPartur (2)X  05:29-05:30-1m--2-295.948465mSCRJalna, Maharashtra
32PDGParadgaon  05:39-05:40-1m--2-288.742454mSCRUsmanpur, Maharashtra
33RNERanjaniO  05:49-05:50-1m--2-282.523469mSCRJalna, Maharashtra
34KODIKodiX  06:19-06:20-1m--2-271.243473mSCRRanjani, Maharashtra
35SVDSarwari  06:34-06:35-1m--2-261.321493mSCRRanjani, Maharashtra
36JJalna (3)  07:03-07:05-2m--2-251.660502mSCRJalna, Maharashtra
37BDUBadnapur  07:24-07:25-1m--2-232.666523mSCRJalna, Maharashtra
38KMVKarmadX  07:39-07:40-1m--2-217.126567mSCRAurangabad, Maharashtra
39CTHChikalthan  07:49-07:50-1m--2-213.2-582mSCRAurangabad, Maharashtra
40MKDDMukundwadi Halt (1)  07:54-07:55-1m12-198.930580mSCRAurangabad, Maharashtra
41AWBAurangabad (5)X  08:15-08:20-5m--2-188.953561mSCRAurangabad 431001, Maharashtra
42DLBDaulatabad (1)  08:34-08:35-1m12-176.440575mSCRDaulatabad, Maharashtra
43POZPotul (1)  08:49-08:50-1m12-167.137554mSCRLasur, Maharashtra
44LSRLasur (2)  09:09-09:10-1m--2-155.368536mSCRAurangabad, Maharashtra
45KAJGKaranjgaon  09:19-09:20-1m--2-145.231523mSCRLasur, Maharashtra
46PSDParsoda  09:29-09:30-1m--2-140.553530mSCRRotegaon, Maharashtra
47RGORotegaonX  09:44-09:45-1m--2-128.293547mSCRAurangabad, Maharashtra
48TRTarur  09:59-10:00-1m--2-106.419586mSCRTaru, Maharashtra
49NSLNagarsol (2)  10:19-10:20-1m--2-100.225589mSCRDist. Nashik, Maharashtra
50MMRManmad Junction (6)X  11:30-11:40-10m42-75.420580mCRManmad 423104, Maharashtra
51ANKAnkai (3)  12:18-12:20-2m22-62.572620mSCRDist. Nashik, Maharashtra
52YLYeola (2)X  12:33-12:35-2m--2-46.863553mCRYeola, Maharashtra
53KPGKopargaon (2)12:48-12:50-2m12-33.266508mCRKopargaon 423601, Maharashtra
54SNVRSanvatsarX  12:57-12:58-1m--2-25.458521mCRNagpur-Aurngabad-Mumbai Hwy, Maharashtra
55KNGNKanhegaon (2)X  13:06-13:08-2m--2-17.854498mCRAhmadnagar, Maharashtra
56PBPuntamba Junction (2)  13:18-13:20-2m22-8.866501mCRPuntamba, Maharashtra
57CIT»Chitali (1)»X13:28-13:30-2m120.025531mCRAhmadnagar, Maharashtra
58BAPBelapur (2)  13:58-14:00-2m2211.553541mCRShrirampur, Maharashtra
59NPWNipani Vadgaon (2)  14:07-14:08-1m--217.751531mCRChitali, Maharashtra
60PDGNPadhegaon (1)  14:15-14:17-2m1223.678512mCRBelapur, Maharashtra
61TKMYTaklimiya (1)  14:24-14:25-1m1232.739511mCRVambori, Maharashtra
62RRIRahuri (2)X  14:33-14:35-2m--237.961519mCRAhmadnagar, Maharashtra
63VBRVambori (1)X  14:48-14:50-2m1251.125547mCRAhmadnagar, Maharashtra
64VLVilad (1)X  15:18-15:20-2m1262.657598mCRAhmadnagar, Maharashtra
65NNBNimblak (1)O  15:29-15:30-1m1271.222656mCRAhmednagar, Maharashtra
66ANGAhmadnagar (2)  15:50-15:55-5m1278.540650mCRAhmednagar 414001, Maharashtra
67AKRAkolner (1)  16:14-16:15-1m1291.343689mCRAhmadnagar, Maharashtra
68SRLSarola (2)  16:23-16:25-2m1297.1450mCRAhmadnagar, Maharashtra
69RNJDRanjangaon Road (1)X  16:39-16:40-1m12107.546656mCRDist. Pune, Maharashtra
70VPRVisapur (2)X  16:48-16:50-2m12113.729186mCRAhmadnagar, Maharashtra
71BWDBelwandi (2)X  17:18-17:20-2m12127.465592mCRAhmadnagar, Maharashtra
72SGNDShrigonda Road (2)X  17:33-17:35-2m22141.621547mCRAhmadnagar, Maharashtra
73KSTHKashti (2)  17:59-18:00-1m12149.817540mCRDaund, Maharashtra
74DDDaund Junction (7)X18:45-19:00-15m42162.750521mCRNew Daund Dist. Pune 413801, Maharashtra
75PAAPatas (3)  19:14-19:15-1m12174.358532mCRDist. Pune 412219, Maharashtra
76KDTNKadethanX  19:20-19:21-1m12179.138532mCRDaund, Maharashtra
77KDGKedgaon (2)  19:29-19:30-1m22184.264544mCRDist. Pune 412203, Maharashtra
78KTTKhutbav (2)X  19:36-19:37-1m12190.642558mCRShirur-Daund Rd Daund, Maharashtra
79YTYevat (2)X  19:46-19:47-1m12196.963558mCRDist. Pune 412214, Maharashtra
80URIUruli (2)X  19:59-20:00-1m12209.562553mCRDist. Pune 412202, Maharashtra
81LONILoni (2)  20:12-20:13-1m12221.956541mCRPune 412201, Maharashtra
82MJBKManjari Budruk (2)X  20:19-20:20-1m12227.542550mCRPune 412307, Maharashtra
83HDPHadapsar (3)  20:27-20:28-1m22232.536554mCRPune 411028, Maharashtra
84GPRWGhorpuri West (2)  20:34-20:35-1m12236.17552mCRPune 411001, Maharashtra
85PUNE•Pune Junction (6)•  20:55--62238.3-556mCRPune 411001, Maharashtra
Scroll to Top
Scroll to Bottom